User: anonymous   Login
Location: Fontevrault
(47.1823°N, 0.0493°E)
Time: 09:57:35
(UTC+00:00)
Language:

FALCON 9 DEB - Orbit

View from above orbital plane
View from above orbital plane
View from above satellite
View from above satellite

Ground track
Ground track

The orbit data is extracted from the following two-line orbital elements,

1 46085U 20055BL  21265.20937854  .00027484  00000-0  24690-3 0  9998
2 46085  53.0083  81.9254 0008849 200.5960 159.4700 15.68032327 68821
Epoch (UTC): 22 September 2021 05:01:30
Eccentricity: 0.0008849
inclination: 53.0083°
perigee height: 358 km
apogee height: 370 km
right ascension of ascending node: 81.9254°
argument of perigee: 200.5960°
revolutions per day: 15.68032327
mean anomaly at epoch: 159.4700°
orbit number at epoch: 6882

The dashed part of the orbit path shows where the satellite is in the earth's shadow,  

DLR